Wind_Speed
6 9 12 6 7 4 4 5 8 3 9 7 7 12 9 15 15 15 12 13 16 17 18 21 25 26 33 37 37 35 32 27 27 27 29 31 32 32 32 32 34 35 35 36
8 11 9 11 9 8 2 3 4 5 3 5 8 15 15 11 21 15 13 15 12 14 17 19 20 23 30 34 39 44 35 32 30 29 30 30 30 31 32 33 33 33 37 41
10 5 7 9 3 3 3 7 11 9 11 9 11 19 23 18 22 21 19 19 18 13 10 16 22 29 28 33 41 39 41 36 34 34 33 33 31 31 33 34 35 35 35 35
5 10 6 1 4 6 5 6 3 4 9 11 14 14 16 11 24 19 19 5 8 4 11 19 24 24 28 34 35 38 46 39 41 38 34 36 35 34 31 32 34 36 36 37
3 4 5 3 5 8 10 9 10 12 13 12 15 15 3 14 17 14 11 13 5 5 13 16 18 23 27 28 35 42 40 43 46 42 40 35 36 36 37 36 34 34 35 37
11 11 12 11 10 11 12 5 8 11 17 11 21 17 9 12 12 8 9 2 3 8 13 18 23 29 32 32 38 33 37 42 46 50 48 43 41 41 40 39 39 39 38 37
11 18 11 10 11 5 7 8 5 5 2 7 5 9 4 2 6 6 6 4 10 14 18 21 25 26 32 37 33 31 36 42 49 53 51 50 50 47 45 43 42 42 43 41
12 11 19 7 6 3 5 3 2 4 1 9 15 4 8 12 12 8 8 10 11 18 17 23 26 29 34 31 32 34 41 48 51 51 53 55 53 52 51 49 47 45 44 44
6 3 13 10 9 4 2 2 3 1 3 3 3 3 8 6 7 10 12 13 15 15 17 23 27 31 24 30 34 39 45 52 53 53 54 54 54 53 53 52 51 51 47 45
7 6 8 10 8 10 12 2 5 6 2 3 8 3 3 8 12 12 13 14 15 11 19 24 26 27 26 31 38 44 52 49 52 54 56 56 54 54 56 55 53 50 47 46
13 8 12 10 9 7 10 11 8 6 5 7 2 4 4 13 7 9 13 12 13 15 23 25 30 32 34 39 46 48 48 52 53 55 57 58 57 57 54 50 45 42 42 40
11 7 13 15 14 8 10 8 4 8 4 4 4 10 14 15 15 18 20 15 15 20 25 29 31 35 42 46 48 51 54 55 56 59 59 59 57 53 50 43 42 42 38 35
12 6 7 9 17 10 13 12 8 11 12 14 7 12 24 20 21 16 15 11 19 21 24 28 36 42 46 49 51 56 55 57 60 60 61 61 58 52 46 38 35 28 28 28
15 16 10 8 10 10 12 11 12 14 15 16 18 23 20 11 17 10 13 18 20 25 28 35 39 44 45 50 54 54 55 59 62 62 62 57 47 39 36 30 26 25 23 19
15 22 22 20 16 14 17 18 18 19 18 19 22 22 12 6 9 6 9 16 26 32 30 36 38 41 49 53 53 55 58 61 63 61 56 46 34 28 19 20 15 11 12 11
14 9 11 16 18 13 19 18 18 20 22 24 24 20 12 17 2 11 16 24 24 28 31 39 42 47 53 53 55 57 61 62 59 54 44 34 29 18 12 11 13 12 12 13
13 8 6 12 10 17 18 16 15 17 18 8 11 7 12 6 7 13 16 21 28 33 36 39 46 50 54 54 57 61 62 57 54 45 32 27 17 13 9 11 12 10 9 9
14 11 8 13 11 5 13 11 17 17 6 3 6 9 5 2 6 14 17 26 33 33 39 45 48 52 54 55 57 59 56 53 47 32 25 18 11 12 9 10 9 17 8 11
17 18 11 9 14 19 23 16 10 11 4 4 7 9 9 12 13 16 23 25 27 32 40 44 48 51 52 55 57 56 51 44 35 24 15 13 12 15 12 13 13 9 8 16
28 25 22 18 10 3 4 13 13 8 8 8 7 10 19 22 20 26 16 22 29 36 43 45 51 50 51 54 56 52 46 39 27 14 11 15 14 14 14 15 24 20 13 20
16 18 24 22 18 11 18 12 8 5 4 5 4 11 14 16 16 17 17 26 31 35 40 46 47 48 51 54 52 48 40 34 19 11 10 12 9 10 12 19 18 17 17 18
22 13 16 19 17 16 13 13 8 9 14 11 9 14 18 20 15 12 18 26 33 37 41 43 43 45 49 51 48 42 36 24 15 10 8 12 13 14 17 16 15 23 16 13
17 18 10 9 7 9 5 10 9 10 14 21 15 18 20 21 11 16 21 28 34 39 41 38 40 43 48 46 42 37 30 20 15 10 10 15 11 8 12 17 13 17 18 15
11 11 7 4 5 3 6 2 3 2 8 12 15 20 24 18 13 17 23 29 35 36 33 34 37 41 43 41 35 32 26 18 13 8 9 13 11 12 13 15 18 17 15 14
5 6 4 5 6 6 5 4 9 12 14 17 17 22 20 16 15 18 23 29 31 29 29 32 37 40 39 35 27 24 21 19 15 10 11 10 10 12 14 17 20 19 22 18
2 3 6 10 14 11 8 6 11 13 14 15 23 21 21 17 18 20 27 26 28 29 28 30 35 38 35 30 22 19 19 21 21 19 19 17 17 18 20 22 26 27 26 29
Wind_Direction
269 284 277 223 232 294 299 324 320 71 180 180 245 292 257 258 246 220 233 237 252 267 284 308 323 334 327 325 322 324 320 313 307 304 297 290 282 277 273 273 270 264 258 253
267 269 248 263 301 271 164 291 251 271 237 293 300 284 271 266 242 221 209 205 218 260 284 318 325 319 317 316 315 317 317 320 317 314 308 302 295 287 279 271 268 266 266 264
255 248 266 296 314 355 261 281 271 277 289 265 267 281 305 262 237 208 203 214 247 291 323 309 314 311 310 309 315 319 325 320 321 322 315 311 304 293 285 279 276 271 267 264
246 258 284 264 240 252 275 308 249 292 310 299 298 303 313 196 195 208 227 286 303 301 289 308 312 308 311 317 320 318 316 321 321 322 322 316 310 306 300 289 280 274 270 269
143 285 294 204 257 224 230 299 293 276 269 283 284 284 207 196 192 211 224 276 183 264 301 302 302 310 313 312 311 309 317 315 315 320 323 318 313 311 307 301 290 280 274 270
243 274 260 224 251 264 274 301 314 292 265 255 260 276 175 199 220 220 240 213 28 265 291 296 297 305 308 306 308 311 309 310 313 316 322 323 314 309 304 300 294 286 276 268
255 246 270 227 256 237 268 301 311 327 193 223 319 310 85 136 124 125 111 178 243 276 296 295 307 307 308 313 318 307 306 307 308 313 321 318 314 310 305 301 295 290 285 276
287 265 218 250 188 200 209 271 256 200 35 300 323 46 112 147 163 176 205 236 262 316 302 309 309 312 315 317 314 305 302 306 312 316 317 312 313 307 304 300 296 292 287 281
325 82 169 192 211 236 205 29 182 108 289 312 266 88 172 214 229 235 228 287 318 322 313 307 311 316 312 306 305 306 306 310 312 314 309 308 310 306 303 300 297 293 288 282
232 312 257 249 278 231 205 166 211 186 128 227 303 55 297 294 272 279 262 296 311 308 305 308 310 307 300 299 300 304 304 311 313 311 309 311 310 308 305 302 298 293 286 278
264 240 239 220 269 254 227 231 227 226 193 174 193 256 33 330 255 268 297 306 322 315 303 304 304 298 295 296 305 318 320 315 313 313 312 312 312 308 304 300 298 296 292 285
210 230 252 249 251 222 205 219 249 238 239 270 246 262 290 283 293 283 297 326 320 293 299 305 302 299 298 304 316 325 318 317 317 315 313 312 310 308 305 297 296 295 288 287
195 229 259 281 241 239 251 276 271 262 267 256 254 276 303 273 279 300 306 310 288 298 303 299 298 299 303 310 319 319 319 319 318 317 316 316 311 306 301 296 297 297 293 294
223 218 215 253 299 292 302 294 252 255 254 263 264 285 293 273 263 267 278 290 290 298 298 301 302 305 309 316 319 319 322 323 323 324 322 317 313 305 303 298 297 289 291 297
263 236 238 250 270 282 286 284 282 275 279 279 286 281 224 295 303 317 305 295 302 309 308 309 309 311 317 323 323 325 327 327 328 325 322 324 322 317 319 319 319 312 306 304
248 253 253 254 261 286 285 279 281 278 273 274 276 270 286 302 38 303 305 313 315 313 313 312 313 317 326 326 328 330 329 331 329 328 328 332 330 328 333 353 356 337 324 309
216 248 243 260 287 293 288 259 271 300 280 266 330 255 280 356 325 311 331 322 323 319 315 313 317 325 329 328 331 331 332 331 332 331 336 339 353 7 2 355 351 349 351 344
195 211 230 270 303 259 277 303 290 293 241 159 119 104 100 103 335 328 324 325 321 319 316 317 322 329 327 329 330 331 333 334 336 339 341 352 5 360 10 359 51 26 65 42
263 270 270 249 260 270 279 305 303 264 232 260 227 231 248 259 268 293 315 317 315 316 314 319 324 328 327 329 331 334 337 338 342 351 359 3 19 22 23 20 0 357 35 21
244 242 240 241 259 272 275 315 274 271 241 244 189 263 269 281 313 334 338 316 309 309 314 319 324 326 328 331 335 337 338 340 344 0 16 21 26 27 33 55 37 38 60 69
216 219 228 234 238 257 256 275 262 240 344 342 290 257 285 315 333 343 316 301 303 306 314 321 325 329 333 336 337 339 340 342 352 5 22 14 29 52 57 57 59 61 51 52
224 229 224 232 245 244 243 277 286 256 204 195 271 294 309 315 317 299 310 300 302 309 316 323 327 334 338 339 342 344 348 358 10 17 20 7 54 69 57 55 56 48 53 61
241 210 228 215 233 284 12 285 298 259 289 271 291 301 318 322 321 308 303 301 307 313 319 327 333 339 342 344 349 353 2 7 20 41 30 63 86 71 72 70 57 60 66 51
219 238 204 203 258 307 338 62 136 90 204 260 279 305 314 323 315 292 291 302 313 318 328 335 340 344 346 352 354 359 6 8 19 30 41 77 66 92 70 68 82 69 62 65
207 221 232 234 230 249 261 198 186 234 242 257 288 301 304 308 291 300 305 316 320 327 343 342 344 347 351 358 358 3 20 30 33 44 74 84 89 92 98 92 84 77 78 80
176 273 246 241 251 233 244 255 270 259 263 280 291 297 301 293 295 300 316 320 332 332 343 345 345 350 356 4 3 12 39 53 59 64 65 73 85 96 100 99 100 99 98 98
Height
3155 3156 3155 3155 3155 3154 3154 3154 3154 3155 3155 3156 3156 3157 3158 3156 3156 3157 3157 3157 3156 3154 3153 3151 3148 3144 3140 3137 3133 3129 3125 3123 3120 3117 3113 3111 3109 3108 3109 3109 3109 3109 3109 3108
3156 3154 3154 3153 3152 3152 3153 3154 3154 3155 3154 3153 3153 3154 3154 3155 3153 3154 3152 3151 3151 3152 3151 3150 3146 3142 3139 3135 3130 3125 3121 3117 3113 3110 3106 3103 3100 3099 3098 3098 3098 3098 3098 3098
3153 3152 3152 3151 3151 3152 3152 3153 3153 3152 3150 3150 3153 3152 3150 3151 3151 3148 3147 3148 3150 3148 3148 3148 3146 3141 3136 3132 3127 3121 3116 3112 3108 3104 3100 3097 3094 3091 3088 3087 3087 3087 3087 3087
3150 3150 3150 3151 3150 3151 3151 3150 3149 3149 3151 3151 3152 3149 3147 3143 3144 3145 3145 3148 3148 3148 3148 3147 3143 3139 3135 3129 3123 3117 3112 3108 3103 3099 3096 3091 3086 3081 3080 3078 3076 3076 3075 3075
3150 3149 3148 3149 3149 3149 3150 3148 3149 3149 3149 3151 3147 3148 3146 3143 3143 3144 3145 3146 3146 3147 3146 3143 3140 3136 3130 3126 3121 3114 3108 3103 3098 3093 3090 3086 3081 3076 3071 3068 3065 3064 3064 3063
3146 3147 3148 3147 3146 3147 3148 3148 3147 3147 3147 3149 3144 3145 3143 3141 3143 3143 3144 3145 3146 3145 3143 3141 3137 3132 3128 3124 3118 3111 3105 3099 3093 3088 3084 3079 3074 3067 3062 3059 3054 3051 3051 3051
3145 3144 3144 3144 3145 3145 3147 3147 3146 3146 3145 3144 3143 3143 3143 3142 3142 3143 3144 3145 3143 3141 3139 3137 3132 3127 3123 3117 3112 3107 3101 3095 3089 3083 3079 3072 3065 3058 3053 3048 3043 3039 3037 3037
3143 3142 3140 3142 3143 3143 3145 3146 3147 3154 3153 3146 3141 3143 3145 3143 3143 3143 3142 3142 3141 3139 3136 3132 3128 3123 3118 3112 3107 3101 3095 3090 3084 3078 3072 3064 3057 3049 3042 3036 3031 3027 3025 3022
3141 3140 3140 3140 3141 3144 3144 3144 3145 3146 3147 3148 3144 3145 3144 3142 3142 3142 3141 3140 3139 3136 3133 3128 3124 3120 3113 3108 3101 3095 3089 3084 3078 3071 3063 3054 3046 3038 3029 3023 3018 3013 3010 3008
3140 3141 3141 3139 3141 3140 3141 3143 3144 3145 3149 3148 3141 3143 3141 3140 3140 3140 3138 3137 3135 3133 3129 3124 3118 3113 3108 3102 3096 3091 3084 3078 3069 3060 3050 3041 3032 3024 3015 3008 3003 2997 2994 2993
3136 3138 3139 3138 3138 3137 3139 3139 3141 3142 3142 3144 3147 3142 3137 3136 3135 3134 3134 3133 3131 3128 3125 3118 3113 3109 3103 3098 3093 3085 3076 3067 3057 3047 3037 3027 3018 3008 3000 2993 2988 2984 2979 2978
3132 3133 3135 3134 3135 3134 3136 3137 3138 3138 3140 3139 3139 3137 3137 3133 3132 3130 3129 3127 3127 3124 3119 3113 3107 3101 3095 3091 3085 3076 3066 3056 3045 3034 3023 3013 3003 2993 2985 2980 2975 2971 2967 2966
3128 3131 3132 3131 3134 3134 3133 3134 3134 3134 3135 3135 3136 3133 3133 3131 3128 3127 3127 3123 3121 3118 3114 3107 3100 3093 3088 3083 3076 3066 3055 3044 3032 3020 3007 2995 2985 2977 2971 2967 2963 2960 2957 2956
3125 3128 3130 3131 3131 3132 3133 3132 3132 3131 3130 3130 3130 3128 3126 3125 3123 3122 3121 3119 3116 3112 3109 3100 3093 3087 3083 3077 3067 3056 3044 3032 3018 3004 2990 2979 2968 2962 2958 2954 2952 2951 2950 2948
3123 3123 3125 3127 3127 3128 3127 3128 3128 3127 3127 3126 3126 3125 3121 3119 3119 3118 3115 3114 3110 3106 3099 3093 3087 3083 3076 3068 3056 3045 3034 3019 3005 2991 2978 2967 2958 2953 2950 2948 2946 2946 2946 2945
3118 3120 3121 3123 3124 3125 3124 3124 3123 3123 3123 3121 3121 3120 3116 3116 3113 3112 3112 3109 3103 3098 3093 3088 3081 3076 3068 3056 3046 3034 3021 3008 2994 2981 2970 2961 2954 2951 2948 2946 2944 2944 2943 2941
3115 3117 3119 3120 3122 3120 3117 3117 3118 3118 3118 3115 3117 3114 3113 3113 3111 3111 3108 3103 3097 3093 3086 3081 3075 3068 3059 3048 3037 3025 3012 2999 2985 2973 2965 2959 2953 2950 2949 2947 2945 2943 2941 2939
3112 3115 3116 3117 3120 3118 3113 3114 3115 3115 3112 3112 3116 3113 3113 3111 3110 3107 3104 3097 3092 3087 3081 3074 3070 3063 3053 3043 3031 3020 3006 2992 2980 2970 2964 2960 2956 2953 2950 2947 2946 2942 2941 2942
3111 3112 3114 3115 3115 3114 3112 3111 3109 3109 3109 3110 3110 3108 3108 3108 3108 3106 3103 3094 3088 3083 3077 3070 3065 3057 3047 3035 3024 3012 2999 2987 2977 2969 2965 2963 2958 2954 2953 2950 2947 2945 2944 2943
3106 3108 3111 3112 3112 3112 3110 3108 3108 3107 3106 3106 3105 3106 3106 3105 3104 3101 3096 3091 3085 3081 3075 3068 3060 3052 3041 3029 3016 3004 2992 2983 2975 2970 2967 2965 2961 2958 2956 2953 2949 2946 2945 2946
3101 3102 3104 3106 3108 3107 3105 3104 3103 3106 3113 3107 3106 3107 3105 3102 3100 3097 3093 3086 3082 3077 3071 3064 3056 3046 3034 3022 3010 2998 2987 2979 2973 2971 2969 2967 2965 2962 2960 2957 2955 2953 2951 2949
3097 3099 3100 3102 3103 3104 3102 3102 3103 3105 3102 3100 3105 3103 3101 3099 3096 3092 3090 3081 3078 3073 3068 3061 3052 3041 3030 3018 3006 2994 2984 2976 2973 2973 2971 2969 2968 2965 2962 2962 2959 2960 2958 2956
3093 3093 3093 3097 3097 3098 3098 3098 3096 3100 3101 3099 3100 3099 3098 3095 3092 3089 3084 3078 3074 3069 3063 3056 3048 3038 3028 3015 3003 2993 2985 2979 2976 2975 2974 2971 2971 2970 2968 2967 2965 2965 2963 2963
3087 3086 3089 3092 3093 3094 3095 3094 3094 3094 3097 3096 3096 3096 3093 3089 3087 3084 3079 3076 3072 3066 3060 3053 3045 3037 3027 3015 3004 2995 2988 2983 2980 2978 2977 2975 2974 2973 2973 2972 2969 2969 2968 2967
3084 3083 3085 3088 3091 3091 3092 3092 3093 3094 3094 3093 3093 3091 3088 3086 3083 3079 3076 3074 3069 3063 3057 3050 3043 3035 3025 3015 3007 3000 2993 2988 2985 2981 2980 2979 2978 2977 2976 2975 2975 2974 2972 2972
3080 3085 3085 3086 3086 3090 3090 3088 3089 3090 3090 3090 3088 3086 3084 3082 3080 3077 3075 3071 3066 3060 3055 3049 3042 3034 3026 3017 3011 3005 2999 2994 2990 2987 2984 2983 2983 2982 2981 2981 2980 2980 2980 2980